Simultaneous Nadir Overpasses (SNOs) Predictions

Prediction of SNOs between METOP-B and TERRA Satellite Orbit:

Table of predicted SNOs for the next 14.0 days since TLE Epoch: 2/13/2025
Index Date (METOP-B) Time (METOP-B) Lat,Lon (METOP-B) SZA (METOP-B ) Date (TERRA) Time (TERRA) Lat,Lon (TERRA) SZA (TERRA ) Distance(km) Time Diff (sec)
1 02/14/2025 18:53:09 -79.06, 85.89 88.21 02/14/2025 18:53:34 -79.06, 85.81 88.22 1.85 25
2 02/14/2025 19:43:42 79.32,-104.96 92.07 02/14/2025 19:42:46 79.32,-104.93 92.07 0.52 56
3 02/17/2025 08:32:56 79.02, 60.64 90.85 02/17/2025 08:33:13 79.02, 60.64 90.85 0.25 17
4 02/17/2025 09:23:30 -79.30,-130.10 88.85 02/17/2025 09:22:27 -79.30,-130.03 88.85 1.49 63
5 02/19/2025 22:12:41 -79.10, 36.20 89.97 02/19/2025 22:12:51 -79.09, 36.09 89.99 2.72 10
6 02/19/2025 23:03:14 79.36,-154.64 90.31 02/19/2025 23:02:03 79.36,-154.63 90.31 0.24 71
7 02/22/2025 11:52:27 79.08, 11.08 89.07 02/22/2025 11:52:28 79.08, 11.06 89.07 0.33 1
8 02/25/2025 00:41:43 78.66, 176.14 87.69 02/25/2025 00:42:55 78.67, 176.24 87.70 2.17 72



Historial Predications of SNOs between METOP-B and TERRA
